Date,TemperatureHighF,TemperatureAvgF,TemperatureLowF,DewpointHighF,DewpointAvgF,DewpointLowF,HumidityHigh,HumidityAvg,HumidityLow,PressureMaxIn,PressureMinIn,WindSpeedMaxMPH,WindSpeedAvgMPH,GustSpeedMaxMPH,PrecipitationSumIn
2013-1-2,24.0,16.2,9.0,20.0,13.2,7.0,91,88,82,30.29,30.23,2,1,5,0.17
2013-1-3,34.0,14.5,6.0,27.0,11.4,3.0,95,87,69,30.34,30.15,2,1,4,0.18
2013-1-4,34.0,18.6,11.0,29.0,15.7,8.0,96,89,71,30.36,30.19,2,1,4,0.01
2013-1-5,40.0,25.9,16.0,31.0,23.0,14.0,96,89,68,30.28,29.86,2,1,5,0.00
2013-1-6,36.0,27.5,21.0,28.0,23.9,19.0,96,87,60,30.06,29.81,2,1,7,0.00
2013-1-7,40.0,27.6,18.0,33.0,24.7,16.0,96,89,66,30.29,30.08,2,1,5,0.00
2013-1-8,42.0,31.8,29.0,38.0,30.3,28.0,96,94,85,30.35,30.18,2,1,4,0.00
2013-1-9,43.0,36.5,29.0,31.0,27.4,25.0,96,72,52,30.16,29.45,3,2,13,0.00
2013-1-10,30.0,22.2,16.0,22.0,18.2,14.0,92,84,63,29.67,29.38,31,6,40,0.63
2013-1-11,29.0,19.8,12.0,19.0,15.1,9.0,91,83,64,29.84,29.66,3,1,8,0.01
2013-1-12,29.0,10.5,0.0,15.0,5.7,-4.0,91,81,53,29.96,29.81,3,1,8,0.01
2013-1-13,26.0,7.2,-4.0,11.0,0.7,-8.0,85,75,52,30.12,29.93,3,2,11,0.01
2013-1-14,25.0,15.1,5.0,11.0,6.2,0.0,82,68,47,30.52,30.15,2,1,8,0.00
2013-1-15,39.0,22.3,9.0,28.0,17.0,6.0,89,80,60,30.88,30.52,2,1,7,0.01
2013-1-16,43.0,30.2,21.0,21.0,18.4,13.0,85,64,32,30.91,30.69,3,2,10,0.01
2013-1-17,42.0,22.9,11.0,19.0,14.8,8.0,89,73,37,30.70,30.47,2,1,7,0.00
2013-1-18,38.0,20.2,9.0,19.0,12.3,6.0,89,75,34,30.54,30.38,2,2,6,0.00
2013-1-19,39.0,19.5,8.0,19.0,12.0,5.0,89,75,41,30.59,30.41,2,1,5,0.00
2013-1-20,41.0,21.5,9.0,19.0,12.2,6.0,89,71,32,30.56,30.38,2,2,6,0.00
2013-1-21,47.0,25.7,14.0,23.0,16.2,10.0,86,71,30,30.46,30.23,2,1,6,0.00
2013-1-22,45.0,28.8,16.0,27.0,19.5,12.0,86,71,35,30.31,30.01,2,1,6,0.00
2013-1-23,50.0,36.9,29.0,33.0,22.8,14.0,94,61,23,30.07,29.89,3,1,14,0.00
2013-1-24,41.0,35.2,32.0,38.0,33.6,31.0,96,94,87,30.22,30.06,1,1,4,0.29
2013-1-25,44.0,36.6,33.0,40.0,35.0,32.0,96,94,87,30.23,29.88,1,1,5,0.15
2013-1-26,42.0,35.7,31.0,37.0,31.3,22.0,96,84,65,29.89,29.45,4,2,15,0.10
2013-1-27,34.0,26.1,16.0,27.0,21.8,14.0,94,85,54,29.83,29.54,3,1,10,0.22
2013-1-28,37.0,24.9,14.0,25.0,18.7,12.0,92,79,50,30.06,29.80,3,1,9,0.17
2013-1-29,46.0,33.0,23.0,30.0,25.5,21.0,93,76,51,30.51,30.08,3,2,13,0.00
2013-1-30,50.0,33.9,25.0,30.0,25.5,21.0,95,75,35,30.59,30.45,2,1,8,0.00
2013-1-31,53.0,36.5,23.0,29.0,24.3,20.0,94,66,27,30.45,30.24,2,2,9,0.00
2013-2-1,52.0,32.4,23.0,26.0,20.9,15.0,84,67,25,30.42,30.26,2,2,6,0.00
2013-2-2,48.0,33.3,25.0,29.0,25.5,22.0,92,75,43,30.49,30.34,2,1,6,0.00
2013-2-3,50.0,32.6,22.0,26.0,22.8,16.0,93,72,25,30.33,30.15,2,1,7,0.00
2013-2-4,51.0,36.3,24.0,29.0,22.8,16.0,86,63,24,30.22,29.96,2,1,7,0.00
2013-2-5,45.0,36.0,28.0,28.0,24.8,22.0,91,65,42,29.95,29.67,3,2,15,0.00
2013-2-6,47.0,32.8,20.0,27.0,21.3,13.0,94,68,25,30.04,29.84,3,1,10,0.00
2013-2-7,33.0,30.1,25.0,29.0,24.6,21.0,93,80,70,29.85,29.52,4,2,14,0.07
2013-2-8,33.0,26.3,18.0,24.0,17.0,12.0,95,70,45,29.63,29.42,3,2,15,0.02
2013-2-9,36.0,24.7,14.0,18.0,14.7,9.0,91,68,35,29.88,29.61,3,1,10,0.02
2013-2-10,37.0,27.0,16.0,21.0,15.9,12.0,94,65,39,29.94,29.84,4,2,13,0.00
2013-2-11,43.0,29.5,20.0,21.0,16.9,14.0,83,62,31,30.25,29.95,3,2,12,0.00
2013-2-12,47.0,30.4,18.0,26.0,19.7,15.0,89,69,30,30.45,30.28,2,1,8,0.00
2013-2-13,51.0,33.0,22.0,27.0,22.8,20.0,90,70,35,30.50,30.33,3,2,11,0.00
2013-2-14,50.0,36.5,26.0,30.0,26.1,24.0,95,69,40,30.57,30.40,4,2,15,0.00
2013-2-15,52.0,36.5,28.0,28.0,26.1,24.0,89,69,34,30.60,30.42,2,1,8,0.00
2013-2-16,54.0,35.0,24.0,27.0,21.5,14.0,87,64,20,30.48,29.95,2,1,9,0.00
2013-2-17,51.0,35.3,26.0,30.0,25.5,22.0,93,72,35,29.91,29.73,3,1,8,0.00
2013-2-18,49.0,34.5,24.0,29.0,25.1,21.0,95,72,36,29.80,29.31,4,2,15,0.00
2013-2-19,34.0,27.6,17.0,30.0,23.5,15.0,92,85,74,29.28,28.92,3,2,15,0.55
2013-2-20,41.0,25.1,17.0,27.0,20.4,15.0,93,84,49,29.66,29.16,2,1,7,0.01
2013-2-21,42.0,29.1,18.0,25.0,20.9,16.0,93,74,42,30.00,29.59,2,1,12,0.01
2013-2-22,48.0,31.9,18.0,27.0,21.5,16.0,93,69,31,30.18,29.91,6,2,15,0.01
2013-2-23,40.0,32.3,26.0,29.0,16.8,7.0,85,56,27,30.11,29.67,4,2,16,0.02
2013-2-24,42.0,29.6,21.0,19.0,13.7,6.0,76,54,25,30.29,30.12,5,2,14,0.02
2013-2-25,46.0,32.1,20.0,25.0,17.6,9.0,82,59,25,30.19,30.02,4,2,12,0.00
2013-2-26,42.0,29.4,21.0,18.0,14.2,6.0,79,57,22,30.27,30.11,3,2,10,0.00
2013-2-27,51.0,32.9,18.0,25.0,16.6,12.0,80,56,22,30.49,30.29,3,2,8,0.00
2013-2-28,57.0,38.3,29.0,32.0,27.8,23.0,91,68,37,30.76,30.48,2,1,8,0.00
2013-3-1,60.0,39.6,29.0,38.0,30.2,28.0,95,74,35,30.77,30.49,2,2,7,0.00
2013-3-2,56.0,40.1,32.0,33.0,29.9,25.0,94,72,30,30.53,30.04,3,1,9,0.00
2013-3-3,42.0,37.4,33.0,38.0,34.6,30.0,95,90,61,30.04,29.84,1,1,6,0.15
2013-3-4,50.0,37.3,28.0,37.0,31.4,27.0,96,81,44,30.02,29.83,2,1,7,0.01
2013-3-5,45.0,39.0,34.0,34.0,31.0,28.0,86,73,62,29.81,29.25,5,3,22,0.01
2013-3-6,33.0,30.0,26.0,31.0,27.6,24.0,95,91,87,29.65,29.12,4,2,15,0.98
2013-3-7,40.0,30.7,23.0,31.0,26.3,21.0,96,85,58,29.62,29.44,3,1,10,0.04
2013-3-8,48.0,32.7,24.0,31.0,27.3,23.0,96,83,46,29.72,29.38,2,1,9,0.07
2013-3-9,49.0,32.4,22.0,28.0,21.6,10.0,95,70,23,30.52,29.75,3,1,12,0.07
2013-3-10,52.0,36.4,24.0,27.0,19.5,12.0,80,57,20,30.60,30.41,2,1,11,0.00
2013-3-11,62.0,38.5,27.0,30.0,23.9,13.0,83,63,15,30.47,30.17,2,2,7,0.00
2013-3-12,64.0,42.0,29.0,37.0,29.0,21.0,89,67,20,30.30,30.16,2,2,6,0.00
2013-3-13,64.0,42.6,30.0,37.0,30.0,23.0,94,68,21,30.36,30.26,2,1,12,0.00
2013-3-14,64.0,43.6,32.0,32.0,28.9,24.0,83,62,25,30.32,30.21,3,1,10,0.00
2013-3-15,60.0,42.7,31.0,35.0,28.6,23.0,89,63,25,30.27,30.04,3,2,9,0.00
2013-3-16,61.0,41.7,29.0,34.0,28.1,23.0,94,63,27,30.09,29.87,4,2,9,0.00
2013-3-17,57.0,42.5,33.0,29.0,23.8,16.0,70,51,20,30.01,29.86,3,2,8,0.00
2013-3-18,59.0,40.1,27.0,27.0,23.4,18.0,88,57,22,30.04,29.91,3,2,12,0.00
2013-3-19,54.0,41.9,34.0,37.0,32.5,25.0,92,71,45,30.06,29.91,3,1,13,0.47
2013-3-20,41.0,37.3,34.0,37.0,34.8,32.0,93,90,85,29.88,29.75,3,2,14,1.91
2013-3-21,51.0,38.0,29.0,35.0,30.3,26.0,96,77,39,29.93,29.77,4,2,12,0.18
2013-3-22,46.0,32.1,20.0,26.0,14.3,1.0,93,56,17,30.01,29.84,3,1,10,0.00
2013-3-23,53.0,36.9,25.0,27.0,18.7,13.0,75,51,21,30.09,29.86,3,1,8,0.00
2013-3-24,60.0,41.3,28.0,33.0,27.8,24.0,89,64,29,30.01,29.83,3,2,9,0.00
2013-3-25,61.0,42.8,29.0,32.0,27.3,21.0,94,61,25,29.87,29.65,3,2,16,0.00
2013-3-26,51.0,41.3,34.0,37.0,31.4,25.0,89,69,53,29.76,29.61,3,2,11,0.00
2013-3-27,54.0,41.9,32.0,36.0,33.6,31.0,95,75,44,29.83,29.68,2,1,10,0.00
2013-3-28,51.0,42.1,34.0,40.0,36.5,33.0,95,81,58,30.12,29.80,3,2,11,0.14
2013-3-29,60.0,42.3,31.0,41.0,33.5,28.0,96,76,32,30.20,30.09,2,1,8,0.14
2013-3-30,67.0,45.2,32.0,42.0,34.6,-99.9,94,74,28,30.17,29.93,3,2,13,0.01
2013-3-31,48.0,41.1,36.0,42.0,37.0,34.0,95,86,60,29.96,29.82,3,1,7,0.25
2013-4-1,49.0,40.8,35.0,39.0,36.0,33.0,95,84,67,30.12,29.87,3,2,8,0.08
2013-4-2,59.0,43.4,31.0,42.0,34.8,30.0,96,75,38,30.17,30.03,2,1,8,0.01
2013-4-3,64.0,43.7,32.0,43.0,35.2,26.0,96,77,24,30.17,29.99,2,1,8,0.00
2013-4-4,49.0,44.0,39.0,43.0,39.9,36.0,93,85,72,29.93,29.76,3,2,14,0.69
2013-4-5,54.0,43.0,36.0,36.0,34.0,32.0,93,72,48,30.03,29.93,3,2,13,0.21
2013-4-6,50.0,42.8,37.0,39.0,34.8,32.0,87,74,58,30.06,29.93,4,3,11,0.00
2013-4-7,50.0,42.1,33.0,39.0,35.5,31.0,93,79,59,29.95,29.17,4,3,18,0.44
2013-4-8,42.0,34.6,30.0,32.0,27.9,23.0,94,79,47,29.84,29.08,3,2,14,0.50
2013-4-9,51.0,40.1,32.0,27.0,20.5,13.0,62,48,22,30.28,29.86,4,3,19,0.02
2013-4-10,68.0,49.5,31.0,39.0,30.8,24.0,87,53,24,30.42,30.00,3,2,11,0.00
2013-4-11,59.0,46.7,37.0,41.0,33.0,13.0,92,64,17,29.99,29.72,2,1,10,0.01
2013-4-12,66.0,46.3,30.0,33.0,29.2,26.0,88,57,25,29.83,29.63,3,2,9,0.01
2013-4-13,61.0,51.0,40.0,36.0,29.9,24.0,70,45,36,29.68,29.45,5,3,15,0.00
2013-4-14,57.0,42.8,31.0,34.0,26.8,20.0,84,56,26,29.60,29.23,4,2,12,0.00
2013-4-15,43.0,35.6,30.0,32.0,25.8,20.0,91,69,41,29.46,29.23,4,2,17,0.03
2013-4-16,40.0,31.8,27.0,27.0,20.5,15.0,90,65,38,30.05,29.49,5,2,18,0.02
2013-4-17,44.0,34.0,24.0,21.0,14.7,8.0,79,49,24,30.37,30.06,4,2,18,0.00
2013-4-18,59.0,42.4,28.0,29.0,19.1,14.0,67,43,20,30.43,30.31,3,2,12,0.00
2013-4-19,67.0,46.5,31.0,36.0,31.0,25.0,87,59,28,30.45,30.13,3,2,11,0.00
2013-4-20,64.0,46.5,30.0,35.0,28.3,20.0,93,57,20,30.26,30.01,3,2,9,0.00
2013-4-21,69.0,50.0,32.0,38.0,29.3,15.0,83,52,15,30.18,30.00,3,2,9,0.00
2013-4-22,67.0,51.3,34.0,39.0,26.9,13.0,91,48,15,30.14,29.91,3,2,12,0.00
2013-4-23,63.0,47.0,37.0,32.0,16.1,9.0,69,32,14,30.17,29.78,5,2,14,0.00
2013-4-24,63.0,46.3,31.0,30.0,17.7,8.0,79,41,12,30.00,29.80,5,2,20,0.00
2013-4-25,73.0,49.4,31.0,34.0,24.4,16.0,68,44,12,30.16,29.86,3,2,10,0.00
2013-4-26,75.0,53.2,33.0,40.0,31.9,23.0,85,51,14,30.45,30.18,3,2,12,0.00
2013-4-27,78.0,55.2,39.0,41.0,31.5,21.0,78,47,14,30.47,30.28,3,2,9,0.00
2013-4-28,76.0,56.5,37.0,46.0,34.1,24.0,80,49,18,30.30,29.97,4,2,11,0.00
2013-4-29,76.0,56.0,39.0,42.0,36.2,31.0,85,55,22,30.04,29.68,4,2,9,0.00
2013-4-30,67.0,53.4,40.0,37.0,19.5,6.0,85,35,10,30.06,29.65,4,2,10,0.00
2013-5-1,60.0,48.9,38.0,13.0,4.1,-1.0,27,16,10,30.61,30.08,5,4,22,0.00
2013-5-2,72.0,53.2,33.0,35.0,17.8,7.0,49,28,12,30.65,30.35,3,1,10,0.00
2013-5-3,78.0,54.9,37.0,40.0,30.4,15.0,78,46,11,30.37,29.89,3,2,12,0.00
2013-5-4,66.0,50.2,36.0,34.0,27.2,21.0,72,45,19,29.96,29.38,4,2,16,0.00
2013-5-5,59.0,45.1,37.0,49.0,37.5,28.0,95,77,38,29.58,29.30,3,1,8,0.54
2013-5-6,51.0,44.3,41.0,44.0,40.2,35.0,95,86,59,29.75,29.52,3,1,9,0.30
2013-5-7,48.0,42.6,37.0,43.0,39.5,35.0,95,89,79,29.90,29.72,2,1,8,0.17
2013-5-8,64.0,50.0,44.0,49.0,44.1,40.0,94,82,45,30.14,29.89,3,1,8,0.16
2013-5-9,73.0,53.7,39.0,49.0,43.2,38.0,95,73,32,30.27,30.10,3,1,11,0.01
2013-5-10,80.0,58.0,41.0,53.0,44.3,31.0,94,68,21,30.44,30.30,2,1,12,0.01
2013-5-11,85.0,60.8,43.0,53.0,39.3,-99.9,91,56,16,30.47,30.34,3,2,11,0.02
2013-5-12,81.0,61.6,45.0,51.0,38.3,30.0,89,51,17,30.43,30.27,3,2,12,0.01
2013-5-13,80.0,59.6,42.0,44.0,31.8,22.0,78,44,12,30.27,30.05,4,2,15,0.00
2013-5-14,82.0,60.9,41.0,43.0,34.9,26.0,72,44,15,30.11,29.88,4,2,9,0.00
2013-5-15,72.0,56.3,43.0,46.0,38.1,29.0,88,56,24,30.00,29.90,3,2,11,0.00
2013-5-16,52.0,43.6,42.0,43.0,20.5,-99.9,94,78,63,29.90,29.70,3,2,12,0.20
2013-5-17,61.0,49.0,39.0,42.0,31.4,-99.9,94,64,34,29.99,29.68,3,2,11,0.12
2013-5-18,66.0,48.8,33.0,39.0,34.7,31.0,93,63,33,30.16,30.00,3,2,11,0.00
2013-5-19,66.0,50.5,34.0,40.0,31.1,18.0,93,55,16,30.28,30.15,3,2,16,0.00
2013-5-20,73.0,56.9,41.0,39.0,29.2,25.0,60,38,19,30.24,29.96,4,2,13,0.00
2013-5-21,66.0,56.8,46.0,34.0,30.0,25.0,54,37,26,29.82,29.59,4,3,17,0.00
2013-5-22,56.0,44.5,32.0,30.0,19.7,12.0,69,41,17,29.64,29.50,3,2,13,0.00
2013-5-23,57.0,42.5,30.0,29.0,22.6,17.0,68,47,25,29.87,29.50,3,2,9,0.00
2013-5-24,66.0,46.6,28.0,30.0,23.0,12.0,81,48,13,29.85,29.73,4,2,13,0.00
2013-5-25,66.0,49.4,33.0,34.0,28.9,20.0,81,50,20,29.88,29.78,4,2,11,0.00
2013-5-26,63.0,49.6,34.0,34.0,31.7,29.0,88,55,28,30.08,29.84,4,2,11,0.00
2013-5-27,54.0,44.7,35.0,44.0,38.1,32.0,90,79,58,30.06,29.78,5,2,11,0.08
2013-5-28,59.0,49.3,42.0,44.0,41.3,39.0,94,76,49,29.81,29.65,3,2,10,0.22
2013-5-29,63.0,52.6,44.0,44.0,41.0,38.0,91,67,40,29.85,29.58,3,2,13,0.03
2013-5-30,43.0,38.0,35.0,38.0,34.6,33.0,93,88,80,29.87,29.83,2,1,4,0.03
2013-5-31,79.0,66.5,52.0,37.0,28.1,17.0,52,27,11,30.20,30.10,3,2,13,0.00
2013-6-1,82.0,61.8,39.0,44.0,32.9,25.0,74,41,14,30.17,29.85,3,2,9,0.00
2013-6-2,84.0,64.0,44.0,47.0,37.9,31.0,81,45,16,29.86,29.61,3,1,9,0.00
2013-6-3,85.0,61.7,42.0,43.0,35.8,28.0,79,45,13,29.85,29.72,3,1,11,0.00
2013-6-4,88.0,64.1,44.0,49.0,38.7,25.0,72,47,11,30.02,29.86,3,2,8,0.00
2013-6-5,90.0,69.8,48.0,48.0,36.7,25.0,71,38,10,30.12,29.96,2,2,10,0.00
2013-6-6,93.0,70.5,50.0,49.0,38.1,30.0,72,37,13,30.07,29.96,3,2,9,0.00
2013-6-7,94.0,70.6,51.0,51.0,40.1,27.0,68,40,10,30.09,29.94,3,2,10,0.00
2013-6-8,93.0,73.1,52.0,52.0,43.6,33.0,76,42,13,30.05,29.87,3,2,13,0.00
2013-6-9,100.0,74.9,55.0,57.0,47.2,37.0,67,43,12,29.95,29.70,3,2,10,0.00
2013-6-10,76.0,65.1,56.0,52.0,45.5,36.0,78,51,32,29.83,29.62,4,2,12,0.00
2013-6-11,73.0,61.7,53.0,44.0,39.1,33.0,68,45,29,29.96,29.79,4,2,21,0.00
2013-6-12,74.0,58.5,44.0,44.0,33.8,19.0,84,46,18,29.95,29.81,4,2,19,0.00
2013-6-13,72.0,54.5,39.0,38.0,30.5,23.0,78,46,18,30.18,29.92,3,2,12,0.00
2013-6-14,76.0,54.8,37.0,37.0,29.7,26.0,68,43,17,30.18,29.81,3,2,13,0.00
2013-6-15,78.0,57.9,41.0,38.0,29.1,18.0,68,41,11,30.01,29.81,3,2,9,0.00
2013-6-16,79.0,56.5,40.0,36.0,31.3,28.0,66,42,18,30.22,30.02,3,2,8,0.00
2013-6-17,76.0,60.1,42.0,42.0,32.9,26.0,79,42,17,30.21,29.99,3,2,12,0.00
2013-6-18,67.0,55.1,42.0,41.0,34.0,21.0,79,50,17,29.97,29.66,4,2,18,0.00
2013-6-19,66.0,51.6,42.0,36.0,31.9,28.0,74,50,26,29.98,29.69,3,2,10,0.00
2013-6-20,68.0,45.3,32.0,33.0,30.3,28.0,84,61,25,29.97,29.85,3,1,8,0.00
2013-6-22,82.0,68.8,39.0,39.0,34.5,31.0,79,31,16,30.02,29.83,3,2,8,0.00
2013-6-23,69.0,56.0,44.0,47.0,39.6,34.0,74,56,34,29.83,29.54,3,2,12,0.00
2013-6-24,55.0,50.3,47.0,49.0,45.1,41.0,93,82,71,29.70,29.44,5,2,20,0.21
2013-6-25,57.0,52.4,47.0,54.0,49.9,45.0,95,92,88,29.94,29.69,3,2,17,1.78
2013-6-26,72.0,61.6,53.0,55.0,52.1,50.0,94,73,48,30.28,29.97,3,2,13,0.56
2013-6-27,86.0,62.7,47.0,53.0,47.4,39.0,95,67,21,30.45,30.27,2,1,8,0.00
2013-6-28,95.0,68.6,49.0,57.0,49.3,44.0,87,57,20,30.45,30.20,3,2,7,0.00
2013-6-29,95.0,71.7,53.0,53.0,49.1,38.0,83,52,14,30.25,30.07,3,2,9,0.00
2013-6-30,95.0,72.5,53.0,53.0,47.9,43.0,80,48,17,30.14,29.96,2,2,11,0.00
2013-7-1,97.0,71.0,55.0,55.0,49.1,38.0,78,53,13,30.25,30.04,3,1,7,0.00
2013-7-2,101.0,74.2,60.0,59.0,51.4,45.0,74,50,15,30.37,30.15,2,1,11,0.00
2013-7-3,94.0,74.4,54.0,57.0,51.7,49.0,85,52,22,30.34,29.98,2,1,9,0.00
2013-7-4,94.0,73.0,56.0,57.0,50.7,45.0,82,50,23,30.12,29.77,3,2,9,0.00
2013-7-5,88.0,71.3,55.0,54.0,42.1,32.0,83,41,17,29.76,29.64,3,2,15,0.00
2013-7-6,85.0,61.1,44.0,43.0,35.3,23.0,73,45,13,29.80,29.69,3,2,13,0.00
2013-7-7,85.0,64.7,44.0,40.0,36.6,33.0,71,41,16,29.93,29.80,3,2,12,0.00
2013-7-8,87.0,61.4,46.0,46.0,37.3,30.0,71,48,15,30.22,29.94,3,2,12,0.00
2013-7-9,85.0,63.7,46.0,43.0,35.2,27.0,69,42,13,30.36,30.22,3,2,11,0.00
2013-7-10,87.0,62.6,46.0,47.0,31.5,-99.9,67,38,14,30.32,30.05,3,2,11,0.00
2013-7-11,85.0,65.8,48.0,44.0,33.9,24.0,69,37,11,30.07,29.89,3,2,12,0.00
2013-7-12,83.0,61.3,42.0,38.0,31.3,26.0,66,38,15,30.02,29.94,3,2,12,0.00
2013-7-13,82.0,61.1,40.0,37.0,29.3,23.0,63,36,13,30.15,30.02,2,2,10,0.00
2013-7-14,87.0,64.4,46.0,44.0,35.9,32.0,69,41,14,30.20,30.04,3,2,10,0.00
2013-7-15,88.0,66.6,49.0,45.0,39.1,33.0,66,41,15,30.07,29.77,3,2,10,0.00
2013-7-16,80.0,64.6,51.0,45.0,35.4,25.0,70,39,14,30.12,29.78,4,2,14,0.00
2013-7-17,87.0,62.8,41.0,40.0,30.9,21.0,72,39,9,30.29,30.13,2,2,7,0.00
2013-7-18,94.0,69.9,44.0,45.0,36.9,30.0,62,35,12,30.29,30.12,3,2,9,0.00
2013-7-19,97.0,70.0,50.0,50.0,40.3,32.0,67,40,11,30.18,29.96,3,2,9,0.00
2013-7-20,99.0,71.9,56.0,56.0,44.0,-99.9,65,43,13,30.04,29.81,3,2,10,0.00
2013-7-21,99.0,76.5,56.0,51.0,43.1,34.0,60,35,11,29.96,29.85,3,2,10,0.00
2013-7-22,95.0,72.9,60.0,50.0,44.6,35.0,63,39,15,30.15,29.97,3,2,9,0.00
2013-7-23,90.0,70.7,55.0,50.0,43.5,36.0,56,40,21,30.22,30.13,3,1,17,0.00
2013-7-24,91.0,72.9,57.0,51.0,48.6,46.0,70,46,24,30.22,30.11,3,2,10,0.00
2013-7-25,94.0,71.9,55.0,53.0,48.6,44.0,75,48,20,30.36,30.14,3,2,13,0.00
2013-7-26,90.0,71.6,58.0,52.0,46.2,37.0,72,44,22,30.39,30.25,3,2,8,0.00
2013-7-27,90.0,70.3,52.0,49.0,41.7,34.0,68,40,14,30.33,29.96,3,2,10,0.00
2013-7-28,88.0,70.0,52.0,48.0,42.3,33.0,73,42,17,29.99,29.80,3,2,9,0.00
2013-7-29,84.0,63.2,47.0,44.0,32.3,20.0,70,37,14,30.12,29.86,3,2,11,0.00
2013-7-30,83.0,62.9,42.0,37.0,32.0,27.0,61,36,16,30.32,30.14,3,2,11,0.00
2013-7-31,82.0,65.1,50.0,46.0,36.7,34.0,63,38,18,30.30,30.11,3,2,12,0.00
2013-8-1,78.0,60.7,42.0,35.0,26.3,20.0,67,33,12,30.12,30.04,3,2,17,0.00
2013-8-2,83.0,57.7,41.0,35.0,30.3,18.0,72,42,9,30.07,29.95,3,2,9,0.00
2013-8-3,83.0,60.2,42.0,42.0,31.0,24.0,68,38,12,30.10,29.99,3,2,9,0.00
2013-8-4,86.0,63.1,44.0,43.0,34.9,27.0,68,40,13,30.15,30.03,3,2,10,0.00
2013-8-5,87.0,65.3,43.0,41.0,33.4,25.0,63,37,12,30.16,30.02,3,2,9,0.00
2013-8-6,90.0,64.9,45.0,40.0,32.6,26.0,60,35,10,30.14,29.99,3,2,10,0.00
2013-8-7,79.0,65.1,52.0,43.0,35.1,31.0,51,35,19,30.15,30.04,3,2,15,0.00
2013-8-8,73.0,57.3,42.0,39.0,34.0,30.0,61,44,23,30.14,29.92,3,2,8,0.00
2013-8-9,77.0,59.7,43.0,42.0,35.4,29.0,74,45,18,30.01,29.88,3,2,13,0.00
2013-8-10,77.0,57.5,41.0,40.0,34.3,28.0,81,48,19,30.15,30.02,3,2,13,0.00
2013-8-11,82.0,57.1,41.0,39.0,34.0,24.0,76,47,12,30.15,30.00,3,1,8,0.00
2013-8-12,80.0,60.7,42.0,38.0,34.7,31.0,70,43,18,30.17,30.04,3,2,10,0.00
2013-8-13,85.0,61.2,41.0,39.0,30.0,-99.9,65,39,11,30.20,30.09,3,2,11,0.00
2013-8-14,86.0,62.7,44.0,42.0,31.4,23.0,67,38,10,30.16,30.05,3,1,10,0.00
2013-8-15,85.0,56.2,43.0,40.0,14.4,-99.9,54,29,10,30.15,30.07,3,2,11,0.00
2013-8-16,86.0,59.7,41.0,37.0,25.3,-99.9,63,37,9,30.22,30.14,3,2,12,0.00
2013-8-17,87.0,62.7,47.0,41.0,31.9,-99.9,65,38,9,30.21,29.99,2,1,7,0.00
2013-8-18,93.0,68.1,50.0,48.0,39.4,33.0,67,40,12,30.15,30.00,3,2,10,0.00
2013-8-19,87.0,65.7,57.0,54.0,37.4,-99.9,67,44,20,30.19,30.06,2,1,9,0.00
2013-8-20,88.0,71.2,59.0,58.0,45.9,-99.9,78,47,22,30.10,29.94,3,1,8,0.00
2013-8-21,90.0,62.0,53.0,56.0,49.2,40.0,95,68,19,30.14,29.99,2,1,19,0.44
2013-8-22,79.0,61.5,50.0,59.0,45.8,33.0,96,66,21,30.12,29.92,3,1,10,0.02
2013-8-23,78.0,60.0,42.0,46.0,35.6,27.0,82,48,16,29.99,29.75,3,2,11,0.01
2013-8-24,75.0,58.5,43.0,46.0,34.8,-99.9,76,48,20,29.87,29.76,4,2,10,0.00
2013-8-25,70.0,56.9,45.0,45.0,40.8,36.0,82,59,30,29.99,29.86,4,2,16,0.00
2013-8-26,75.0,59.1,44.0,49.0,42.1,36.0,87,58,28,30.05,29.97,3,2,14,0.00
2013-8-27,77.0,52.1,41.0,44.0,39.6,35.0,87,69,22,30.02,29.93,2,1,11,0.00
2013-8-28,80.0,70.7,54.0,48.0,43.0,39.0,65,39,26,30.06,29.94,4,2,18,0.00
2013-8-29,79.0,62.6,46.0,47.0,39.4,36.0,82,48,23,30.27,30.06,3,2,16,0.00
2013-8-30,85.0,62.5,43.0,43.0,33.1,22.0,77,44,10,30.31,30.17,2,1,13,0.00
2013-8-31,89.0,57.4,47.0,41.0,34.1,-99.9,68,48,13,30.22,30.04,2,2,9,0.00
2013-9-1,79.0,67.0,54.0,54.0,45.7,36.0,87,49,33,30.08,29.93,2,1,14,0.02
2013-9-2,61.0,58.6,56.0,59.0,55.5,48.0,95,89,62,30.00,29.91,2,1,8,2.82
2013-9-3,72.0,61.6,55.0,59.0,55.5,52.0,96,82,59,30.07,29.95,3,1,14,0.14
2013-9-4,75.0,63.1,51.0,54.0,51.1,49.0,95,68,44,30.17,30.01,2,2,14,0.01
2013-9-5,72.0,59.9,46.0,50.0,41.9,30.0,89,56,22,30.12,29.91,3,2,16,0.00
2013-9-6,78.0,56.3,37.0,44.0,37.1,30.0,87,56,19,30.18,30.01,2,2,11,0.00
2013-9-7,78.0,59.3,43.0,47.0,38.5,-99.9,87,54,23,30.07,29.98,2,2,10,0.00
2013-9-8,85.0,62.0,43.0,45.0,36.8,27.0,84,48,13,30.06,29.90,2,2,8,0.00
2013-9-9,84.0,61.1,45.0,46.0,38.5,31.0,80,50,16,30.02,29.79,2,2,7,0.00
2013-9-10,82.0,61.1,44.0,43.0,37.2,27.0,72,47,14,29.95,29.80,2,2,10,0.00
2013-9-11,79.0,61.3,47.0,48.0,42.7,38.0,78,53,28,30.09,29.95,3,1,7,0.00
2013-9-12,78.0,59.9,48.0,57.0,46.8,40.0,95,66,28,30.08,29.94,3,1,9,0.57
2013-9-13,81.0,61.0,49.0,60.0,53.0,47.0,96,79,30,30.05,29.80,3,1,6,0.57
2013-9-14,86.0,61.3,48.0,56.0,46.8,-99.9,95,67,28,29.82,29.68,3,1,8,0.00
2013-9-15,77.0,61.0,46.0,45.0,38.2,31.0,86,49,23,29.81,29.70,3,2,16,0.00
2013-9-16,77.0,56.9,40.0,42.0,36.3,33.0,80,52,23,29.86,29.70,3,2,12,0.00
2013-9-17,64.0,56.2,47.0,43.0,35.6,25.0,79,50,23,29.82,29.52,4,2,20,0.00
2013-9-18,48.0,42.5,38.0,40.0,36.6,32.0,90,80,54,29.95,29.83,2,1,3,0.00
2013-9-19,76.0,52.0,34.0,38.0,30.2,22.0,85,52,13,29.96,29.76,2,2,8,0.00
2013-9-20,72.0,53.1,38.0,43.0,32.6,25.0,75,51,22,29.78,29.55,3,2,15,0.00
2013-9-21,53.0,45.7,39.0,47.0,39.5,-99.9,94,83,64,29.57,29.41,3,2,15,0.62
2013-9-22,59.0,45.3,37.0,42.0,38.7,35.0,95,80,50,29.95,29.59,3,1,9,0.05
2013-9-23,68.0,49.2,33.0,45.0,37.7,32.0,95,70,30,30.07,29.94,3,1,8,0.00
2013-9-24,62.0,53.9,44.0,43.0,40.0,35.0,90,61,40,29.93,29.51,4,2,16,0.18
2013-9-25,49.0,40.5,33.0,40.0,34.9,29.0,95,82,56,29.58,29.48,3,2,11,0.68
2013-9-26,49.0,37.7,31.0,36.0,30.8,26.0,96,79,42,29.91,29.58,3,1,11,0.18
2013-9-27,57.0,40.6,29.0,36.0,29.7,23.0,95,71,27,30.18,29.98,2,1,8,0.00
2013-9-28,64.0,46.3,32.0,38.0,30.5,-99.9,92,61,31,30.16,30.00,3,2,19,0.00
2013-9-29,57.0,52.4,49.0,44.0,36.4,27.0,75,55,40,29.99,29.87,4,3,24,0.00
2013-9-30,55.0,50.9,46.0,50.0,45.0,42.0,91,81,71,29.99,29.84,4,3,18,0.09
2013-10-1,60.0,48.3,42.0,41.0,38.8,36.0,86,71,41,29.93,29.88,2,1,7,0.00
2013-10-2,61.0,44.8,33.0,38.0,31.2,24.0,92,64,30,29.92,29.77,4,2,12,0.00
2013-10-3,50.0,40.1,28.0,29.0,21.6,12.0,90,53,23,30.18,29.88,5,2,22,0.00
2013-10-4,54.0,44.7,37.0,24.0,20.1,16.0,56,39,23,30.53,30.23,6,4,22,0.00
2013-10-5,64.0,44.5,34.0,30.0,22.4,17.0,69,44,18,30.63,30.41,3,2,12,0.00
2013-10-6,74.0,46.4,31.0,29.0,23.2,14.0,82,49,12,30.47,30.19,3,2,14,0.00
2013-10-7,70.0,47.9,32.0,30.0,22.8,18.0,70,43,14,30.18,29.82,3,2,10,0.00
2013-10-8,59.0,44.7,30.0,30.0,25.0,22.0,75,49,25,29.85,29.34,2,1,9,0.00
2013-10-9,49.0,41.2,33.0,36.0,31.5,27.0,94,69,48,29.47,29.13,3,1,12,0.05
2013-10-10,57.0,41.1,30.0,36.0,32.0,28.0,94,73,38,29.89,29.46,3,2,11,0.01
2013-10-11,60.0,43.2,29.0,37.0,31.7,27.0,93,68,36,30.03,29.88,2,2,8,0.00
2013-10-12,59.0,40.0,29.0,35.0,28.0,-99.9,92,68,36,29.93,29.68,3,2,10,0.00
2013-10-13,51.0,38.1,32.0,38.0,33.7,31.0,96,85,56,30.19,29.76,2,1,10,0.35
2013-10-14,53.0,38.4,30.0,35.0,30.5,27.0,96,77,37,30.31,30.14,4,1,7,0.00
2013-10-15,56.0,42.7,32.0,29.0,25.4,22.0,83,54,30,30.27,30.16,4,2,18,0.01
2013-10-16,63.0,42.1,27.0,34.0,26.9,22.0,82,59,28,30.24,30.16,3,2,9,0.01
2013-10-17,66.0,42.4,29.0,32.0,26.4,20.0,83,59,20,30.23,30.05,3,2,7,0.00
2013-10-18,65.0,46.6,34.0,35.0,27.4,23.0,70,51,22,30.28,30.12,2,1,8,0.00
2013-10-19,66.0,45.3,31.0,35.0,27.0,-99.9,85,56,22,30.31,30.17,2,2,9,0.00
2013-10-20,70.0,45.1,32.0,36.0,28.5,16.0,85,59,14,30.22,29.99,2,2,5,0.00
2013-10-21,66.0,46.8,33.0,28.0,25.0,20.0,75,48,17,30.17,30.01,2,2,9,0.00
2013-10-22,70.0,47.4,33.0,33.0,23.3,13.0,72,46,11,30.21,30.03,2,2,6,0.00
2013-10-23,68.0,45.7,33.0,33.0,24.3,18.0,71,48,15,30.09,29.90,2,2,6,0.00
2013-10-24,67.0,45.2,33.0,34.0,23.6,15.0,73,48,13,30.21,30.00,3,2,7,0.00
2013-10-25,66.0,46.7,31.0,30.0,22.7,20.0,68,43,17,30.38,30.21,3,2,8,0.00
2013-10-26,66.0,43.9,32.0,28.0,20.2,-99.9,69,46,14,30.41,30.19,2,2,7,0.00
2013-10-27,64.0,44.2,32.0,28.0,22.3,18.0,73,46,19,30.16,28.86,5,2,17,0.00
2013-10-28,37.0,33.1,32.0,33.0,28.7,-99.9,95,89,66,29.37,28.87,3,1,11,0.08
2013-10-29,42.0,36.3,32.0,36.0,33.0,31.0,96,88,76,29.87,29.38,3,1,11,0.05
2013-10-30,48.0,35.9,28.0,37.0,31.1,27.0,96,84,56,30.17,29.87,3,1,8,0.00
2013-10-31,56.0,39.2,29.0,33.0,30.4,27.0,96,75,32,30.36,30.17,2,1,7,0.00
2013-11-1,61.0,40.1,29.0,37.0,30.5,28.0,95,74,29,30.36,30.09,2,2,9,0.00
2013-11-2,57.0,44.2,32.0,36.0,28.5,-99.9,87,59,34,30.11,29.67,4,2,11,0.00
2013-11-3,45.0,36.8,28.0,35.0,21.7,14.0,88,57,30,29.91,29.71,2,1,8,0.00
2013-11-4,45.0,34.2,25.0,19.0,16.0,10.0,77,50,27,30.06,29.69,3,2,15,0.00
2013-11-5,52.0,37.0,28.0,27.0,20.5,16.0,73,54,26,30.43,30.09,2,1,12,0.00
2013-11-6,58.0,41.3,30.0,35.0,29.4,24.0,85,66,33,30.52,30.35,2,1,6,0.00
2013-11-7,61.0,48.3,37.0,34.0,22.4,16.0,74,40,20,30.39,30.05,4,2,15,0.00
2013-11-8,60.0,45.0,33.0,34.0,27.8,17.0,83,53,31,30.11,29.88,3,2,11,0.00
2013-11-9,61.0,39.9,29.0,35.0,27.1,-99.9,94,68,26,30.13,29.97,2,1,8,0.00
2013-11-10,62.0,44.5,29.0,33.0,21.0,12.0,88,47,15,30.22,30.11,2,1,13,0.00
2013-11-11,65.0,47.2,32.0,28.0,19.4,12.0,58,37,13,30.38,30.20,2,1,9,0.00
2013-11-12,62.0,52.9,46.0,36.0,26.8,15.0,58,38,22,30.56,30.36,2,1,10,0.00
2013-11-13,63.0,44.2,32.0,34.0,28.9,26.0,79,59,27,30.53,30.33,2,1,9,0.00
2013-11-14,61.0,43.2,29.0,33.0,26.5,21.0,86,57,24,30.31,29.55,4,2,10,0.00
2013-11-15,46.0,37.2,32.0,28.0,23.6,17.0,69,59,32,29.57,29.30,2,1,10,0.00
2013-11-16,48.0,40.2,31.0,27.0,19.8,-99.9,75,47,35,29.63,29.18,4,2,13,0.00
2013-11-17,56.0,35.8,25.0,30.0,25.6,22.0,87,69,35,29.99,29.65,2,2,9,0.00
2013-11-18,51.0,40.5,28.0,35.0,31.1,22.0,85,70,51,30.00,29.83,4,2,24,0.00
2013-11-19,43.0,39.9,35.0,39.0,36.4,32.0,94,87,75,29.86,29.66,4,2,13,0.29
2013-11-20,44.0,39.5,34.0,41.0,37.5,32.0,95,93,86,29.68,29.47,2,1,9,0.82
2013-11-21,33.0,31.6,29.0,31.0,19.4,11.0,94,63,42,30.22,29.62,6,4,22,0.17
2013-11-22,41.0,33.8,26.0,10.0,3.9,0.0,44,29,18,30.35,30.07,6,3,19,0.01
2013-11-23,48.0,35.1,27.0,15.0,8.0,-99.9,59,35,17,30.12,29.99,4,2,16,0.00
2013-11-24,46.0,30.9,20.0,19.0,15.2,10.0,80,56,24,30.35,30.11,2,1,8,0.00
2013-11-25,53.0,31.6,23.0,23.0,18.9,12.0,80,64,19,30.50,30.37,2,1,5,0.00
2013-11-26,56.0,39.2,25.0,32.0,23.4,19.0,89,58,23,30.42,30.10,2,1,6,0.00
2013-11-27,51.0,37.4,29.0,31.0,26.4,23.0,84,67,35,30.07,29.70,2,1,5,0.00
2013-11-28,47.0,34.9,29.0,31.0,27.4,25.0,89,76,47,30.09,29.77,2,1,6,0.00
2013-11-29,52.0,34.0,26.0,31.0,27.3,25.0,94,79,43,30.37,30.12,2,1,7,0.00
2013-11-30,52.0,34.1,27.0,31.0,25.2,-99.9,90,76,38,30.46,30.28,2,1,5,0.00
2013-12-1,53.0,35.7,26.0,35.0,27.7,24.0,92,75,40,30.61,30.41,2,1,5,0.00
2013-12-2,55.0,45.1,32.0,35.0,26.2,15.0,90,51,29,30.38,29.52,5,3,13,0.01
2013-12-3,39.0,27.5,14.0,37.0,23.5,12.0,92,85,75,29.49,29.16,4,2,17,0.07
2013-12-4,26.0,16.0,10.0,15.0,10.7,7.0,91,81,60,29.70,29.40,3,1,7,0.18
2013-12-5,26.0,15.4,5.0,16.0,9.3,2.0,88,77,54,29.77,29.62,2,1,7,0.18
2013-12-6,28.0,22.9,16.0,22.0,14.0,6.0,93,71,40,29.73,29.11,5,3,13,0.00
2013-12-7,24.0,19.6,11.0,22.0,14.1,-99.9,92,83,68,29.83,29.06,3,2,12,0.00
2013-12-8,26.0,7.9,-3.0,12.0,3.1,-7.0,91,81,54,30.22,29.84,2,1,8,0.34
2013-12-9,29.0,15.1,5.0,13.0,6.8,1.0,88,71,39,30.56,30.32,2,1,8,0.16
2013-12-10,38.0,17.3,5.0,25.0,12.1,2.0,88,81,55,30.54,30.22,2,1,6,0.00
2013-12-11,36.0,21.7,12.0,20.0,15.3,9.0,91,78,46,30.41,30.28,2,1,7,0.00
2013-12-12,41.0,21.9,9.0,23.0,15.2,6.0,91,78,44,30.38,30.12,2,1,8,0.00
2013-12-13,43.0,27.3,17.0,26.0,19.7,14.0,89,75,35,30.61,30.19,2,1,9,0.00
2013-12-14,42.0,27.3,18.0,24.0,18.6,-99.9,89,76,43,30.79,30.62,2,1,5,0.00
2013-12-15,47.0,28.4,18.0,27.0,20.9,16.0,91,77,36,30.76,30.54,2,1,5,0.00
2013-12-16,50.0,30.6,21.0,26.0,21.4,18.0,89,73,29,30.66,30.46,2,1,5,0.00
2013-12-17,51.0,32.5,23.0,29.0,24.2,21.0,92,75,36,30.58,30.16,2,1,6,0.00
2013-12-18,52.0,35.4,26.0,27.0,24.1,19.0,89,67,27,30.12,29.24,3,1,8,0.00
2013-12-19,34.0,30.7,24.0,29.0,19.0,13.0,89,62,43,29.68,29.16,4,2,16,0.00
2013-12-20,38.0,26.6,20.0,24.0,12.1,2.0,77,57,22,29.86,29.67,3,2,11,0.00
2013-12-21,50.0,33.4,27.0,29.0,24.7,-99.9,94,75,45,30.12,29.72,3,1,8,0.00
2013-12-22,51.0,33.6,25.0,32.0,27.5,23.0,95,81,45,30.56,30.13,2,1,9,0.00
2013-12-23,52.0,33.1,25.0,32.0,26.7,24.0,95,80,42,30.68,30.55,2,1,4,0.00
2013-12-24,50.0,34.4,25.0,32.0,27.4,24.0,94,78,47,30.71,30.56,2,1,7,0.00
2013-12-25,45.0,31.7,24.0,31.0,25.8,22.0,96,81,50,30.73,30.54,2,1,5,0.01
2013-12-26,50.0,29.9,21.0,28.0,22.6,19.0,93,77,41,30.64,30.46,2,1,5,0.01
2013-12-27,49.0,29.9,21.0,24.0,19.2,9.0,88,68,19,30.52,30.15,2,1,4,0.00
2013-12-28,46.0,31.3,22.0,21.0,15.9,-99.9,79,58,27,30.38,30.12,5,2,13,0.00
2013-12-29,44.0,32.8,26.0,22.0,20.1,17.0,80,61,38,30.45,30.30,2,1,8,0.00
2013-12-30,52.0,33.4,22.0,25.0,18.6,11.0,86,61,20,30.42,30.26,2,1,9,0.00
2013-12-31,52.0,38.5,29.0,23.0,17.7,11.0,72,46,20,30.40,30.24,2,1,7,0.00
2014-1-1,54.0,33.9,25.0,25.0,21.1,16.0,81,63,27,30.42,30.25,2,1,7,0.00
2014-1-2,51.0,33.9,25.0,31.0,25.2,22.0,91,74,34,30.36,30.15,2,1,5,0.00